DateTime,F1_A11,F1_S11,BsB_S11,BsG_S11,BsR_S11,BbsB_S11,BbsG_S11,BbsR_S11,BaB_A11,BaG_A11,BaR_A11,T_S11,U_S11,P_S11,T1_A11
2016-03-16T00:00:00Z,0000380,21000600,,,,,,,,,,23.8,00.0,0658.0,34.4
2016-03-16T00:01:00Z,0000380,21000600,,,,,,,,,,23.8,00.0,0658.0,34.4
2016-03-16T00:02:00Z,0000380,21000600,,,,,,,,,,23.8,00.0,0658.0,34.4
2016-03-16T00:03:00Z,0000380,61000600,,,,,,,,,,23.8,00.0,0658.0,34.4
2016-03-16T00:04:00Z,0000380,41000600,0001.19,0001.22,0000.58,-000.40,-000.11,-000.11,0000.20,-000.01,0000.26,23.9,00.0,0658.7,34.4
2016-03-16T00:05:00Z,0000380,01000600,0001.09,0001.03,0000.39,-000.08,0000.46,-000.06,-000.13,-000.12,-000.24,23.8,00.0,0658.7,34.4
2016-03-16T00:06:00Z,0000380,01000600,0001.73,0001.58,0000.76,0000.06,0000.00,0000.14,0000.05,0000.26,0000.09,23.8,00.0,0658.8,34.4
2016-03-16T00:07:00Z,0000380,01000600,0001.39,0001.02,0000.37,-000.19,0000.21,0000.16,0000.18,0000.16,0000.28,23.8,00.0,0658.7,34.4
2016-03-16T00:08:00Z,0000380,01000600,0001.45,0001.23,0000.84,-000.30,0000.24,0000.08,0000.11,-000.17,-000.43,23.8,00.0,0658.7,34.4
2016-03-16T00:09:00Z,0000380,01000600,0000.99,0001.96,0000.61,0000.03,0000.32,0000.06,-000.08,-000.12,0000.29,23.8,00.0,0658.7,34.4
2016-03-16T00:10:00Z,0000380,01000600,0001.47,0001.80,0000.78,0000.54,0000.78,0000.06,0000.01,0000.01,-000.34,23.8,00.0,0658.7,34.4
2016-03-16T00:11:00Z,0000380,01000600,0001.67,0001.30,0000.66,0000.14,0000.14,-000.02,-000.02,-000.23,0000.19,23.8,00.0,0658.6,34.4
2016-03-16T00:12:00Z,0000380,01000600,0001.88,0001.22,0001.19,-000.35,0000.51,0000.08,0000.11,0000.26,0000.03,23.8,00.0,0658.5,34.4
2016-03-16T00:13:00Z,0000380,01000600,0001.07,0001.43,0000.48,0000.43,0000.43,-000.22,0000.03,-000.03,0000.19,23.8,00.0,0658.4,34.4
2016-03-16T00:14:00Z,0000380,01000600,0002.05,0000.58,0000.67,0000.27,-000.03,-000.13,0000.21,0000.13,0000.05,23.9,00.0,0658.5,34.4
2016-03-16T00:15:00Z,0000380,01000600,0001.98,0001.59,0000.08,0000.03,0000.29,-000.24,-000.09,0000.06,0000.24,24.0,00.0,0658.5,34.5
2016-03-16T00:16:00Z,0000380,01000600,0000.95,0001.51,0000.85,0000.51,0000.82,0000.41,0000.00,0000.16,-000.03,24.0,00.0,0658.6,34.5
2016-03-16T00:17:00Z,0000380,01000600,0001.13,0001.15,0000.70,-000.10,0000.11,0000.46,0000.18,0000.14,0000.15,24.0,00.0,0658.7,34.5
2016-03-16T00:18:00Z,0000380,01000600,0000.91,0001.16,0001.15,0000.64,0000.30,0000.29,0000.27,0000.13,0000.11,24.1,00.0,0658.7,34.5
2016-03-16T00:19:00Z,0000380,01000600,0001.48,0000.68,0000.41,0000.03,0000.48,0000.03,0000.12,0000.02,0000.07,24.1,00.0,0658.7,34.5
2016-03-16T00:20:00Z,0000380,01000600,0000.53,0000.92,0000.73,0000.13,0000.30,0000.32,0000.07,0000.12,0000.04,24.1,00.0,0658.8,34.5
2016-03-16T00:21:00Z,0000380,01000600,0001.24,0001.09,0000.90,0000.02,0000.00,0000.06,0000.26,0000.23,0000.06,24.0,00.0,0658.8,34.5
2016-03-16T00:22:00Z,0000380,01000600,0002.79,0001.10,0000.74,-000.30,0000.40,0000.10,0000.15,0000.21,-000.06,24.0,00.0,0658.8,34.5
2016-03-16T00:23:00Z,0000380,01000600,0000.33,0000.67,0000.78,-000.21,0000.44,-000.43,0000.01,0000.02,0000.24,24.0,00.0,0658.8,34.5
2016-03-16T00:24:00Z,0000380,01000600,0000.73,0001.53,0001.07,-000.33,-000.11,0000.10,-000.03,-000.17,-000.12,24.0,00.0,0658.8,34.5
2016-03-16T00:25:00Z,0000380,01000600,0002.62,0001.52,0000.46,0000.24,0000.71,0000.25,0000.09,0000.16,-000.04,24.0,00.0,0658.8,34.5
2016-03-16T00:26:00Z,0000380,01000600,0001.93,0001.13,0000.56,0000.53,0000.06,0000.27,0000.12,0000.14,0000.24,24.0,00.0,0658.8,34.5
2016-03-16T00:27:00Z,0000380,01000600,0001.05,0001.14,0000.75,-000.14,0000.00,0000.21,0000.06,0000.13,-000.26,24.0,00.0,0658.8,34.5
2016-03-16T00:28:00Z,0000380,01000600,0001.93,0001.77,0000.85,0000.03,0000.43,0000.25,-000.01,-000.04,0000.17,24.0,00.0,0658.7,34.5
2016-03-16T00:29:00Z,0000380,01000600,0001.84,0000.71,0001.08,0000.62,0000.43,0000.27,0000.08,-000.07,0000.04,24.0,00.0,0658.7,34.5
2016-03-16T00:30:00Z,0000380,01000600,0001.10,0001.56,0000.71,0000.25,0000.21,0000.10,-000.08,0000.23,-000.03,24.0,00.0,0658.8,34.4
2016-03-16T00:31:00Z,0000380,01000600,0001.66,0000.88,0000.95,-000.37,0000.17,0000.19,0000.24,-000.06,0000.25,24.0,00.0,0658.9,34.4
2016-03-16T00:32:00Z,0000380,01000600,0001.16,0000.64,0000.51,0000.35,0000.27,0000.22,0000.15,0000.20,0000.03,24.0,00.0,0659.0,34.4
2016-03-16T00:33:00Z,0000380,01000600,0000.91,0000.31,0000.48,-000.13,0000.27,-000.03,0000.20,0000.18,-000.05,23.9,00.0,0659.0,34.4
2016-03-16T00:34:00Z,0000380,01000600,0001.22,0001.86,0000.45,0000.21,0000.02,0000.11,0000.00,0000.01,0000.17,23.9,00.0,0659.0,34.4
2016-03-16T00:35:00Z,0000380,01000600,0001.07,0001.39,0000.65,0000.57,0000.40,0000.29,0000.08,0000.21,0000.42,23.8,00.0,0659.0,34.4
2016-03-16T00:36:00Z,0000380,01000600,0002.36,0001.66,0000.59,-000.11,0000.16,0000.11,0000.23,0000.18,-000.05,23.8,00.0,0659.0,34.4
2016-03-16T00:37:00Z,0000380,01000600,0001.00,0000.94,0000.65,0000.06,0000.28,0000.49,0000.09,-000.15,-000.37,23.8,00.0,0659.0,34.4
2016-03-16T00:38:00Z,0000380,01000600,0001.37,0000.82,0000.27,-000.16,0000.24,-000.11,0000.02,0000.13,0000.14,23.8,00.0,0659.0,34.4
2016-03-16T00:39:00Z,0000380,01000600,0002.09,0001.15,0000.76,-000.02,0000.02,0000.59,0000.02,-000.10,0000.20,23.8,00.0,0659.0,34.4
2016-03-16T00:40:00Z,0000380,01000600,0000.45,0001.34,0000.55,0000.54,-000.19,0000.06,0000.17,-000.14,-000.22,23.8,00.0,0659.0,34.4
2016-03-16T00:41:00Z,0000380,01000600,0001.60,0001.39,0000.63,-000.10,-000.11,0000.02,-000.12,0000.08,0000.09,23.8,00.0,0658.9,34.4
2016-03-16T00:42:00Z,0000380,01000600,0000.76,0001.49,0000.21,0000.73,0000.59,0000.29,0000.24,-000.02,0000.09,23.9,00.0,0658.9,34.4
2016-03-16T00:43:00Z,0000380,01000600,0002.65,0001.50,0001.20,0000.11,0000.05,0000.00,-000.06,0000.16,0000.06,23.9,00.0,0658.8,34.4
2016-03-16T00:44:00Z,0000380,01000600,0000.97,0001.23,0000.89,-000.16,-000.13,0000.38,0000.18,0000.31,0000.17,23.9,00.0,0658.9,34.4
2016-03-16T00:45:00Z,0000380,01000600,0001.48,0001.75,0000.51,0000.13,0000.43,0000.14,0000.07,0000.12,0000.33,23.9,00.0,0658.9,34.4
2016-03-16T00:46:00Z,0000380,01000600,0001.70,0001.64,0000.43,0000.13,-000.03,0000.19,0000.12,0000.22,-000.04,23.9,00.0,0658.9,34.4
2016-03-16T00:47:00Z,0000380,01000600,0001.56,0001.29,0000.92,0000.06,0000.36,0000.27,0000.19,0000.00,0000.01,23.9,00.0,0658.9,34.4
2016-03-16T00:48:00Z,0000380,01000600,0000.85,0001.59,0000.49,0000.00,0000.02,-000.05,0000.02,-000.04,0000.15,23.9,00.0,0659.0,34.4
2016-03-16T00:49:00Z,0000380,01000600,0001.98,0000.76,0000.74,0000.27,0000.65,0000.32,0000.33,0000.21,0000.02,23.9,00.0,0659.0,34.4
2016-03-16T00:50:00Z,0000380,01000600,0000.71,0001.96,0001.11,0000.41,-000.11,0000.38,-000.04,0000.05,-000.31,23.8,00.0,0659.0,34.4
2016-03-16T00:51:00Z,0000380,01000600,0000.77,0000.44,0001.09,-000.64,0000.19,0000.33,0000.06,0000.06,0000.06,23.8,00.0,0659.0,34.4
2016-03-16T00:52:00Z,0000380,01000600,0000.44,0000.85,0000.96,0000.37,0000.16,0000.10,0000.07,0000.05,0000.36,23.8,00.0,0659.0,34.4
2016-03-16T00:53:00Z,0000380,01000600,0000.66,0001.14,0000.52,-000.60,0000.24,0000.32,0000.19,0000.02,0000.05,23.8,00.0,0659.1,34.4
2016-03-16T00:54:00Z,0000380,01000600,0000.84,0001.99,0000.03,0000.03,0000.14,-000.14,0000.03,0000.03,-000.11,23.8,00.0,0659.0,34.4
2016-03-16T00:55:00Z,0000380,01000600,0001.30,0000.53,0001.33,0000.79,-000.11,0000.57,-000.11,-000.16,-000.22,23.8,00.0,0659.0,34.4
2016-03-16T00:56:00Z,0000380,01000600,0002.06,0001.63,0000.61,0000.30,0000.00,0000.19,0000.13,0000.14,0000.15,23.8,00.0,0659.0,34.4
2016-03-16T00:57:00Z,0000380,41000600,,,,,,,,,,,,0659.1,34.4
2016-03-16T00:58:00Z,0000380,61000600,,,,,,,,,,23.8,00.0,0658.2,34.4
2016-03-16T00:59:00Z,0000380,21000600,,,,,,,,,,23.8,00.0,0658.2,34.4
2016-03-16T01:00:00Z,0000380,21000600,,,,,,,,,,23.8,00.0,0658.2,34.4
2016-03-16T01:01:00Z,0000380,21000600,,,,,,,,,,23.8,00.0,0658.2,34.4
2016-03-16T01:02:00Z,0000380,21000600,,,,,,,,,,23.8,00.0,0658.2,34.4
2016-03-16T01:03:00Z,0000380,61000600,,,,,,,,,,23.8,00.0,0658.2,34.4
2016-03-16T01:04:00Z,0000380,41000600,0001.44,0000.58,0001.34,0000.21,-000.02,0000.27,0000.09,0000.11,0000.04,23.8,00.0,0659.0,34.4
2016-03-16T01:05:00Z,0000380,01000600,0001.72,0001.81,0001.29,0000.40,0000.06,0000.48,0000.14,-000.00,0000.19,23.8,00.0,0659.1,34.4
2016-03-16T01:06:00Z,0000380,01000600,0001.36,0001.66,0000.84,0000.27,0000.05,0000.38,0000.05,-000.01,-000.27,23.8,00.0,0659.1,34.4
2016-03-16T01:07:00Z,0000380,01000600,0001.95,0001.92,0001.36,0000.14,0000.03,-000.02,0000.09,0000.11,0000.18,23.8,00.0,0659.1,34.4
2016-03-16T01:08:00Z,0000380,01000600,0001.20,0001.17,0000.75,0000.32,-000.09,0000.16,-000.03,0000.08,0000.08,23.8,00.0,0659.1,34.4
2016-03-16T01:09:00Z,0000380,01000600,0001.67,0000.54,0000.95,0000.03,0000.13,0000.14,-000.03,-000.20,-000.17,23.8,00.0,0659.2,34.4
2016-03-16T01:10:00Z,0000380,01000600,0001.09,0000.88,0001.18,0000.48,0000.09,0000.43,0000.09,0000.15,0000.27,23.8,00.0,0659.2,34.4
2016-03-16T01:11:00Z,0000380,01000600,0001.50,0001.41,0000.29,0000.68,0000.51,0000.33,-000.04,-000.05,-000.35,23.8,00.0,0659.1,34.4
2016-03-16T01:12:00Z,0000380,01000600,0001.73,0001.02,0000.63,0000.43,0000.36,0000.37,0000.18,0000.03,0000.33,23.8,00.0,0659.0,34.4
2016-03-16T01:13:00Z,0000380,01000600,0002.43,0001.02,0000.48,-000.24,0000.05,0000.51,0000.02,-000.08,-000.17,23.8,00.0,0659.0,34.4
2016-03-16T01:14:00Z,0000380,01000600,0001.36,0001.12,0000.26,0000.16,0000.52,-000.11,0000.10,0000.29,0000.54,23.9,00.0,0658.9,34.4
2016-03-16T01:15:00Z,0000380,01000600,0001.80,0001.00,0000.75,0000.19,0000.00,0000.25,0000.10,0000.23,-000.36,23.9,00.0,0659.0,34.4
2016-03-16T01:16:00Z,0000380,01000600,0001.93,0001.09,0000.34,0000.80,-000.21,-000.18,0000.09,0000.11,0000.39,23.9,00.0,0659.0,34.4
2016-03-16T01:17:00Z,0000380,01000600,0001.54,0001.86,0000.31,0000.60,0000.25,0000.40,0000.24,0000.25,0000.06,23.9,00.0,0659.1,34.4
2016-03-16T01:18:00Z,0000380,01000600,0000.91,0001.72,0000.55,0000.08,-000.05,0000.25,0000.03,-000.07,-000.08,23.9,00.0,0659.1,34.4
2016-03-16T01:19:00Z,0000380,01000600,0001.83,0001.42,0000.80,-000.03,0000.25,0000.24,-000.11,0000.14,0000.21,23.9,00.0,0659.0,34.4
2016-03-16T01:20:00Z,0000380,01000600,0001.89,0001.46,0000.67,0000.21,0000.41,0000.11,0000.19,-000.03,-000.05,23.9,00.0,0659.1,34.4
2016-03-16T01:21:00Z,0000380,01000600,0001.33,0000.74,0001.07,-000.22,0000.76,0000.46,0000.17,-000.02,0000.04,23.8,00.0,0659.1,34.4
2016-03-16T01:22:00Z,0000380,01000600,0001.78,0001.22,0000.90,-000.10,0000.21,0000.25,0000.02,0000.09,0000.15,23.8,00.0,0659.1,34.4
2016-03-16T01:23:00Z,0000380,01000600,0000.19,0000.64,0000.39,0000.48,0000.49,0000.19,-000.11,0000.10,-000.21,23.8,00.0,0659.0,34.4
2016-03-16T01:24:00Z,0000380,01000600,0001.16,0001.97,0000.56,0000.29,0000.40,0000.19,-000.00,-000.23,-000.01,23.8,00.0,0659.0,34.4
2016-03-16T01:25:00Z,0000380,01000600,0002.51,0000.78,0000.84,-000.19,0000.25,0000.41,0000.05,0000.05,-000.29,23.8,00.0,0658.9,34.4
2016-03-16T01:26:00Z,0000380,01000600,0001.94,0000.77,0000.10,0000.17,0000.25,0000.49,0000.05,-000.24,0000.19,23.9,00.0,0658.9,34.4
2016-03-16T01:27:00Z,0000380,01000600,0001.49,0001.06,0000.66,0000.10,0000.27,0000.11,0000.06,0000.23,0000.27,23.9,00.0,0658.9,34.4
2016-03-16T01:28:00Z,0000380,01000600,0001.82,0001.11,0001.20,0000.27,0000.25,0000.40,-000.07,0000.10,-000.01,24.0,00.0,0658.8,34.4
2016-03-16T01:29:00Z,0000380,01000600,0002.13,0001.64,0000.98,0000.19,0000.79,0000.38,0000.10,0000.10,0000.16,24.0,00.0,0658.9,34.4
2016-03-16T01:30:00Z,0000380,01000600,0001.53,0001.04,0001.03,-000.62,0000.02,0000.49,0000.09,0000.14,-000.10,24.0,00.0,0658.8,34.5
2016-03-16T01:31:00Z,0000380,01000600,0002.16,0000.72,0000.67,0000.05,0000.30,0000.18,0000.11,0000.09,0000.12,24.0,00.0,0658.8,34.5
2016-03-16T01:32:00Z,0000380,01000600,0001.70,0001.05,0000.48,0000.49,0000.43,-000.03,0000.35,0000.16,0000.08,24.0,00.0,0659.0,34.5
2016-03-16T01:33:00Z,0000380,01000600,0001.31,0001.08,0000.99,-000.30,0000.55,0000.54,-000.00,0000.18,0000.22,24.0,00.0,0658.9,34.5
2016-03-16T01:34:00Z,0000380,01000600,0001.02,0001.07,0000.78,-000.10,-000.03,0000.06,0000.06,0000.03,0000.12,24.0,00.0,0658.9,34.5
2016-03-16T01:35:00Z,0000380,01000600,0001.38,0001.47,0000.21,0000.05,0000.08,0000.03,0000.17,0000.18,-000.02,24.0,00.0,0659.0,34.5
2016-03-16T01:36:00Z,0000380,01000600,0001.91,0001.14,0001.04,0000.35,0000.19,0000.65,0000.16,0000.15,0000.15,24.0,00.0,0659.0,34.5
2016-03-16T01:37:00Z,0000380,01000600,0001.71,0001.52,0000.84,-000.33,0000.25,0000.25,0000.08,0000.06,0000.07,24.0,00.0,0659.1,34.5
2016-03-16T01:38:00Z,0000380,01000600,0002.07,0000.76,0000.92,0000.17,-000.05,0000.49,0000.02,0000.20,-000.17,24.0,00.0,0659.0,34.5
2016-03-16T01:39:00Z,0000380,01000600,0002.10,0000.95,0000.37,-000.03,0000.25,0000.29,0000.08,-000.28,0000.17,23.9,00.0,0659.0,34.5
2016-03-16T01:40:00Z,0000380,01000600,0001.90,0001.00,0001.26,0000.52,0000.59,0000.57,-000.01,0000.02,0000.24,23.9,00.0,0659.0,34.5
2016-03-16T01:41:00Z,0000380,01000600,0001.88,0001.51,0000.48,0000.30,0000.46,0000.46,0000.02,0000.26,-000.23,24.0,00.0,0659.0,34.5
2016-03-16T01:42:00Z,0000380,01000600,0001.63,0000.87,0000.58,0000.14,0000.33,0000.19,0000.01,-000.08,0000.20,24.0,00.0,0659.0,34.5
2016-03-16T01:43:00Z,0000380,01000600,0001.12,0000.59,0000.74,-000.03,0000.36,0000.29,0000.26,0000.03,-000.01,24.0,00.0,0659.0,34.5
2016-03-16T01:44:00Z,0000380,01000600,0002.55,0001.03,0000.98,0000.35,0000.38,-000.16,0000.04,0000.05,-000.02,24.0,00.0,0659.0,34.5
2016-03-16T01:45:00Z,0000380,01000600,0001.32,0000.89,0000.49,0000.03,0000.74,0000.18,0000.02,-000.04,-000.06,24.0,00.0,0659.0,34.4
2016-03-16T01:46:00Z,0000380,01000600,0001.73,0001.13,0000.59,0000.08,0000.65,0000.22,0000.10,0000.25,0000.44,24.0,00.0,0659.0,34.4
2016-03-16T01:47:00Z,0000380,01000600,0002.01,0000.69,0001.04,-000.37,0000.68,0000.41,0000.28,0000.10,-000.09,24.0,00.0,0659.0,34.4
2016-03-16T01:48:00Z,0000380,01000600,0001.17,0001.43,0000.92,0000.29,0000.49,0000.05,0000.09,0000.27,0000.33,24.0,00.0,0659.1,34.4
2016-03-16T01:49:00Z,0000380,01000600,0001.49,0000.97,0000.68,0000.08,0000.40,0000.53,0000.06,0000.01,-000.26,23.9,00.0,0659.1,34.4
2016-03-16T01:50:00Z,0000380,01000600,0000.95,0000.77,0000.41,0000.73,0000.43,0000.05,0000.12,0000.10,-000.18,23.9,00.0,0659.2,34.4
2016-03-16T01:51:00Z,0000380,01000600,0001.26,0000.51,0000.81,0000.46,0000.30,0000.35,0000.03,0000.13,0000.33,23.9,00.0,0659.2,34.4
2016-03-16T01:52:00Z,0000380,01000600,0001.98,0001.03,0000.47,-000.27,-000.03,0000.24,0000.18,-000.08,-000.09,23.9,00.0,0659.2,34.4
2016-03-16T01:53:00Z,0000380,01000600,0002.30,0000.54,0000.75,-000.32,0000.06,0000.52,-000.10,0000.04,0000.02,23.8,00.0,0659.2,34.4
2016-03-16T01:54:00Z,0000380,01000600,0000.87,0000.55,0000.63,-000.54,0000.24,0000.25,0000.03,0000.09,0000.23,23.8,00.0,0659.1,34.4
2016-03-16T01:55:00Z,0000380,01000600,0001.72,0000.90,0000.29,0000.24,0000.14,-000.08,0000.01,-000.30,-000.18,23.8,00.0,0659.2,34.4
2016-03-16T01:56:00Z,0000380,01000600,0001.14,0000.74,0000.65,0000.00,0000.13,-000.05,-000.13,0000.01,-000.13,23.8,00.0,0659.2,34.4
2016-03-16T01:57:00Z,0000380,41000600,,,,,,,,,,,,0659.2,34.4
2016-03-16T01:58:00Z,0000380,61000600,,,,,,,,,,23.8,00.0,0658.4,34.4
2016-03-16T01:59:00Z,0000380,21000600,,,,,,,,,,23.8,00.0,0658.4,34.4
2016-03-16T02:00:00Z,0000380,21000600,,,,,,,,,,23.8,00.0,0658.3,34.4
2016-03-16T02:01:00Z,0000380,21000600,,,,,,,,,,23.9,00.0,0658.3,34.4
2016-03-16T02:02:00Z,0000380,21000600,,,,,,,,,,24.0,00.0,0658.3,34.4
2016-03-16T02:03:00Z,0000380,61000600,,,,,,,,,,24.0,00.0,0658.2,34.4
2016-03-16T02:04:00Z,0000380,41000600,0001.15,0000.80,0000.66,-000.16,0000.03,-000.19,0000.14,-000.16,-000.06,24.0,00.0,0659.0,34.4
2016-03-16T02:05:00Z,0000380,01000600,0001.17,0001.87,0000.94,0000.60,0000.30,0000.32,0000.09,0000.24,0000.04,24.0,00.0,0659.1,34.4
2016-03-16T02:06:00Z,0000380,01000600,0001.06,0000.67,0000.70,0000.25,0000.22,0000.40,0000.14,0000.02,-000.22,24.0,00.0,0659.1,34.4
2016-03-16T02:07:00Z,0000380,01000600,0001.18,0000.89,0000.25,-000.02,-000.08,-000.10,0000.02,0000.15,0000.16,24.0,00.0,0659.2,34.4
2016-03-16T02:08:00Z,0000380,01000600,0001.15,0000.53,0000.00,0000.30,0000.17,0000.33,0000.07,0000.12,0000.14,24.0,00.0,0659.3,34.4
2016-03-16T02:09:00Z,0000380,01000600,0001.02,0001.19,0000.71,0000.65,0000.22,0000.40,0000.08,0000.07,-000.01,24.0,00.0,0659.3,34.4
2016-03-16T02:10:00Z,0000380,01000600,0001.78,0001.26,0000.28,0001.02,-000.16,-000.03,0000.20,0000.14,0000.52,24.0,00.0,0659.4,34.4
2016-03-16T02:11:00Z,0000380,01000600,0001.58,0000.77,0000.08,0001.16,0000.09,-000.05,0000.25,0000.24,-000.17,23.9,00.0,0659.4,34.4
2016-03-16T02:12:00Z,0000380,01000600,0001.34,0000.88,0000.73,-000.05,0000.57,0000.06,-000.00,-000.03,0000.15,23.9,00.0,0659.4,34.4
2016-03-16T02:13:00Z,0000380,01000600,0001.70,0000.86,0001.05,0000.19,0000.16,0000.00,0000.06,0000.18,-000.35,23.9,00.0,0659.4,34.4
2016-03-16T02:14:00Z,0000380,01000600,0001.81,0000.90,0000.46,0001.18,0000.41,0000.06,0000.26,0000.12,0000.35,23.9,00.0,0659.3,34.4
2016-03-16T02:15:00Z,0000380,01000600,0001.96,0000.76,0000.72,0000.76,-000.08,0000.35,-000.02,-000.01,0000.24,23.8,00.0,0659.3,34.3
2016-03-16T02:16:00Z,0000380,01000600,0001.26,0000.62,0000.50,-000.06,-000.21,0000.45,0000.13,0000.21,-000.13,23.8,00.0,0659.3,34.3
2016-03-16T02:17:00Z,0000380,01000600,0001.72,0000.63,0000.50,-000.06,0000.05,-000.21,0000.11,-000.00,0000.31,23.8,00.0,0659.3,34.3
2016-03-16T02:18:00Z,0000380,01000600,0000.76,0001.22,0000.58,0001.21,-000.32,0000.22,0000.05,-000.02,-000.33,23.8,00.0,0659.3,34.3
2016-03-16T02:19:00Z,0000380,01000600,0000.87,0000.90,0000.75,0000.00,0000.06,-000.11,0000.17,0000.10,0000.04,23.8,00.0,0659.3,34.3
2016-03-16T02:20:00Z,0000380,01000600,0001.06,0001.36,0000.98,0000.00,0000.17,-000.22,0000.02,0000.15,0000.41,23.8,00.0,0659.3,34.3
2016-03-16T02:21:00Z,0000380,01000600,0001.32,0000.89,0000.89,0000.19,0000.25,0000.14,0000.13,0000.05,-000.15,23.8,00.0,0659.3,34.3
2016-03-16T02:22:00Z,0000380,01000600,0001.39,0001.45,0000.68,0000.54,0000.19,0000.03,0000.01,-000.07,0000.03,23.8,00.0,0659.3,34.3
2016-03-16T02:23:00Z,0000380,01000600,0002.39,0001.25,0000.56,0000.75,0000.19,-000.03,0000.17,0000.23,-000.02,23.7,00.0,0659.4,34.3
2016-03-16T02:24:00Z,0000380,01000600,0001.43,0000.62,0000.96,0000.98,0000.19,-000.10,-000.00,-000.14,-000.06,23.7,00.0,0659.4,34.3
2016-03-16T02:25:00Z,0000380,01000600,0000.84,0000.97,0000.67,0000.57,0000.19,-000.46,-000.08,-000.22,-000.04,23.7,00.0,0659.4,34.3
2016-03-16T02:26:00Z,0000380,01000600,0000.80,0001.30,0000.09,0000.41,0000.35,0000.00,-000.02,-000.06,-000.01,23.7,00.0,0659.4,34.3
2016-03-16T02:27:00Z,0000380,01000600,0001.88,0001.47,0000.47,0000.16,0000.40,-000.02,0000.06,0000.13,0000.19,23.7,00.0,0659.4,34.3
2016-03-16T02:28:00Z,0000380,01000600,0001.27,0001.05,0000.49,0000.30,0000.09,0000.06,0000.14,0000.22,-000.26,23.8,00.0,0659.4,34.3
2016-03-16T02:29:00Z,0000380,01000600,0001.86,0001.09,0000.42,0000.30,-000.11,-000.16,-000.05,0000.01,0000.17,23.9,00.0,0659.4,34.3
2016-03-16T02:30:00Z,0000380,01000600,0001.32,0001.21,0000.45,0000.68,-000.08,-000.02,0000.20,0000.02,0000.27,24.0,00.0,0659.4,34.4
2016-03-16T02:31:00Z,0000380,01000600,0000.32,0001.17,0000.73,0001.07,-000.11,-000.02,0000.21,0000.20,0000.08,24.0,00.0,0659.4,34.4
2016-03-16T02:32:00Z,0000380,01000600,0002.07,0000.98,0000.97,0000.06,0000.32,0000.10,0000.07,0000.22,0000.25,24.1,00.0,0659.4,34.4
2016-03-16T02:33:00Z,0000380,01000600,0001.63,0001.22,0000.40,-000.38,0000.14,-000.13,0000.00,0000.17,0000.13,24.2,00.0,0659.4,34.4
2016-03-16T02:34:00Z,0000380,01000600,0000.72,0000.78,0000.72,0000.56,0000.19,-000.08,0000.13,0000.20,0000.19,24.2,00.0,0659.5,34.4
2016-03-16T02:35:00Z,0000380,01000600,0001.17,0000.71,0000.60,0000.25,-000.02,-000.08,0000.28,0000.00,-000.03,24.2,00.0,0659.5,34.4
2016-03-16T02:36:00Z,0000380,01000600,0002.04,0001.00,0001.52,0000.72,0000.30,0000.27,0000.17,0000.14,0000.03,24.2,00.0,0659.5,34.4
2016-03-16T02:37:00Z,0000380,01000600,0000.70,0000.91,0000.59,0000.29,0000.33,-000.02,0000.06,0000.13,0000.09,24.2,00.0,0659.5,34.4
2016-03-16T02:38:00Z,0000380,01000600,0001.70,0001.11,0000.58,0000.80,0000.24,-000.14,0000.16,0000.09,0000.24,24.2,00.0,0659.5,34.4
2016-03-16T02:39:00Z,0000380,01000600,0001.89,0000.40,0000.82,0000.73,-000.10,0000.33,-000.12,0000.02,-000.15,24.2,00.0,0659.6,34.4
2016-03-16T02:40:00Z,0000380,01000600,0001.46,0001.11,0000.98,0000.08,0000.25,-000.24,0000.03,-000.12,-000.19,24.2,00.0,0659.5,34.4
2016-03-16T02:41:00Z,0000380,01000600,0000.82,0000.81,0000.82,0000.59,0000.30,0000.14,0000.19,0000.08,0000.20,24.2,00.0,0659.6,34.4
2016-03-16T02:42:00Z,0000380,01000600,0001.21,0000.96,0000.79,0000.46,-000.10,-000.22,0000.11,-000.03,-000.09,24.2,00.0,0659.6,34.4
2016-03-16T02:43:00Z,0000380,01000600,0001.20,0001.40,0000.74,-000.05,0000.08,0000.02,0000.08,0000.31,0000.07,24.2,00.0,0659.6,34.4
2016-03-16T02:44:00Z,0000380,01000600,0000.42,0000.64,0001.02,0000.03,0000.03,0000.19,0000.14,0000.19,0000.31,24.2,00.0,0659.6,34.4
2016-03-16T02:45:00Z,0000380,01000600,0001.51,0000.45,0001.01,0000.81,0000.00,-000.22,-000.01,-000.05,-000.15,24.2,00.0,0659.6,34.4
2016-03-16T02:46:00Z,0000380,01000600,0002.28,0000.97,0000.83,0000.11,0000.14,0000.21,0000.21,0000.19,0000.26,24.2,00.0,0659.6,34.4
2016-03-16T02:47:00Z,0000380,01000600,0001.12,0001.29,0000.38,0000.05,0000.49,0000.10,0000.14,0000.13,-000.13,24.2,00.0,0659.6,34.4
2016-03-16T02:48:00Z,0000380,01000600,0002.02,0000.89,0000.46,0000.02,0000.13,0000.02,0000.04,0000.11,0000.14,24.2,00.0,0659.6,34.4
2016-03-16T02:49:00Z,0000380,01000600,0001.72,0001.20,0000.22,0000.52,0000.10,0000.19,0000.11,-000.01,0000.02,24.2,00.0,0659.7,34.4
2016-03-16T02:50:00Z,0000380,01000600,0001.18,0001.06,0000.42,-000.06,0000.08,-000.03,-000.08,0000.09,0000.12,24.2,00.0,0659.7,34.4
2016-03-16T02:51:00Z,0000380,01000600,0001.76,0000.60,0000.74,0000.08,-000.03,-000.06,0000.13,-000.00,0000.07,24.2,00.0,0659.6,34.4
2016-03-16T02:52:00Z,0000380,01000600,0000.86,0000.94,0000.40,0000.65,-000.10,0000.16,0000.18,0000.23,0000.19,24.2,00.0,0659.7,34.4
2016-03-16T02:53:00Z,0000380,01000600,0001.54,0001.01,0000.74,0000.92,0000.00,0000.25,-000.01,-000.05,0000.02,24.2,00.0,0659.7,34.4
2016-03-16T02:54:00Z,0000380,01000600,0001.68,0001.36,0000.46,0000.73,0000.44,-000.05,-000.04,-000.18,-000.21,24.1,00.0,0659.7,34.4
2016-03-16T02:55:00Z,0000380,01000600,0001.05,0001.64,0000.21,0000.03,-000.06,-000.13,-000.02,-000.13,-000.17,24.1,00.0,0659.7,34.4
2016-03-16T02:56:00Z,0000380,01000600,0001.37,0001.61,0000.27,0000.32,-000.08,-000.05,-000.05,0000.05,0000.21,24.2,00.0,0659.7,34.4
2016-03-16T02:57:00Z,0000380,41000600,,,,,,,,,,,,0659.9,34.4
2016-03-16T02:58:00Z,0000380,61000600,,,,,,,,,,24.1,00.0,0658.9,34.4
2016-03-16T02:59:00Z,0000380,21000600,,,,,,,,,,24.2,00.0,0658.9,34.4
2016-03-16T03:00:00Z,0000380,21000600,,,,,,,,,,24.2,00.0,0658.9,34.4
2016-03-16T03:01:00Z,0000380,21000600,,,,,,,,,,24.2,00.0,0659.0,34.4
2016-03-16T03:02:00Z,0000380,21000600,,,,,,,,,,24.2,00.0,0659.0,34.4
2016-03-16T03:03:00Z,0000380,61000600,,,,,,,,,,24.2,00.0,0659.0,34.4
2016-03-16T03:04:00Z,0000380,41000600,0001.73,0001.42,0000.74,0000.17,0000.02,0000.27,0000.18,0000.09,-000.03,24.3,00.0,0659.8,34.4
2016-03-16T03:05:00Z,0000380,01000600,0001.70,0000.78,0000.54,0000.27,-000.05,-000.19,0000.10,0000.08,0000.10,24.2,00.0,0659.9,34.4
2016-03-16T03:06:00Z,0000380,01000600,0002.17,0001.50,0001.00,0000.05,0000.02,0000.11,0000.23,0000.04,0000.34,24.2,00.0,0659.8,34.4
2016-03-16T03:07:00Z,0000380,01000600,0002.39,0001.29,0000.70,0000.03,0000.21,0000.30,-000.04,0000.12,-000.25,24.2,00.0,0659.8,34.4
2016-03-16T03:08:00Z,0000380,01000600,0002.51,0001.41,0000.57,0000.13,-000.38,0000.37,0000.09,0000.11,-000.04,24.2,00.0,0659.8,34.4
2016-03-16T03:09:00Z,0000380,01000600,0001.63,0000.90,0000.27,0000.52,-000.30,0000.24,-000.07,-000.19,0000.15,24.2,00.0,0659.9,34.4
2016-03-16T03:10:00Z,0000380,01000600,0002.11,0001.09,0000.98,-000.29,-000.02,0000.16,0000.01,0000.01,-000.13,24.2,00.0,0659.9,34.4
2016-03-16T03:11:00Z,0000380,01000600,0001.31,0001.55,0000.53,0000.62,-000.03,0000.11,0000.01,-000.15,-000.09,24.2,00.0,0659.8,34.4
2016-03-16T03:12:00Z,0000380,01000600,0001.83,0001.43,0000.63,0000.29,-000.16,-000.08,0000.07,0000.27,0000.29,24.3,00.0,0659.8,34.4